Regional Weather Roundup
Issued by NWS Green Bay, WI

Home | Current Version | Previous Version | Text Only | Print | Product List | Glossary On
Versions: 1 2 3 4 5 6 7 8 9 10 11 12 13 14 15 16 17 18 19 20 21 22 23 24 25 26 27 28 29 30 31 32 33 34 35 36 37 38 39 40 41 42 43 44 45 46 47 48 49 50
000
ASUS43 KGRB 221710
RWRGRB

NORTH-CENTRAL AND NORTHEAST WISCONSIN REGIONAL WEATHER ROUNDUP
NATIONAL WEATHER SERVICE GREEN BAY WI
1100 AM CST MON DEC 22 2014

WIZ005-009-010>012-018-019-221800-
NORTH CENTRAL WISCONSIN

CITY           SKY/WX    TMP DP  RH WIND       PRES   REMARKS
IRONWOOD       CLOUDY    36  32  87 SE8       29.73F
MANITOWISH WTR CLOUDY    32  32 100 SE9       29.77F FOG
ARBOR VITAE    CLOUDY    33  32  95 SE9       29.78F FOG
EAGLE RIVER    CLOUDY    32  32  99 SE9       29.79F FOG
LAND O LAKES   CLOUDY    32  32  99 SE7       29.80F FOG
RHINELANDER    FOG       31  30  96 SE9       29.80F VSB 1
PHILLIPS       CLOUDY    32  32  99 SE8       29.76F FOG
ANTIGO         FOG       31  31 100 SE10      29.81F VSB 1/2
TOMAHAWK       CLOUDY    32  31  95 SE3       29.79F FOG
MERRILL        CLOUDY    33  32  98 SE8       29.80F FOG
$$

WIZ013-073-221800-
NORTHEAST WISCONSIN

CITY           SKY/WX    TMP DP  RH WIND       PRES   REMARKS
IRON MOUNTAIN  CLOUDY    34  32  92 SE9       29.85F FOG
MARINETTE      CLOUDY    36  32  87 S12       29.89F
OCONTO         CLOUDY    36  35  95 SE12      29.89F
$$

WIZ017-030-035>037-045-221800-
CENTRAL WISCONSIN

CITY           SKY/WX    TMP DP  RH WIND       PRES   REMARKS
MEDFORD        CLOUDY    32  31  97 SE9       29.76F FOG
WAUSAU         CLOUDY    33  31  92 SE9       29.79F FOG
MOSINEE        CLOUDY    32  32 100 SE10      29.80F FOG
MARSHFIELD     CLOUDY    35  32  88 SE13      29.77F FOG
WISC RAPIDS    CLOUDY    35  30  82 SE9       29.81F HAZE
STEVENS POINT  CLOUDY    32  31  94 SE7       29.81F FOG
WAUPACA        CLOUDY    36  32  85 SE9       29.84F FOG
SHAWANO        CLOUDY    37  33  87 S8        29.86F FOG
CLINTONVILLE   CLOUDY    34  32  93 SE7       29.86F FOG
$$

WIZ038-039-048-051-221800-
FOX VALLEY

CITY           SKY/WX    TMP DP  RH WIND       PRES   REMARKS
NWS GREEN BAY  CLOUDY    37  33  85 SE12      29.88F FOG
APPLETON       NOT AVBL
OSHKOSH        CLOUDY    36  32  85 SE8       29.84F FOG
FOND DU LAC    CLOUDY    37  32  82 SE10      29.85F
$$

WIZ022-050-052-221800-
EAST CENTRAL WISCONSIN

CITY           SKY/WX    TMP DP  RH WIND       PRES   REMARKS
STURGEON BAY   CLOUDY    36  30  80 S15       29.92F
MANITOWOC      CLOUDY    37  33  85 SE14      29.90F
SHEBOYGAN      CLOUDY    36  32  85 SE10      29.88F FOG
$$

LMZ563-521-522-541>543-221800-
LAKESHORE

STATION/POSITION TIME  TEMP    WIND        PRES    VSBY  WAVE
                       AIR SEA DIR/SP/G                  HT/PER
                 (UTC) (F)     (DEG/KT/KT) (MB)    (MI)  (FT/S)
SHEBOYGAN LKSHOR 1700   36 37  130/ 16/ 18 1012.7F
KEWAUNEE LKSHORE 1700   36     160/ 18/ 21 1012.3F
ALGOMA MARINA    1700          200/ 19/ 23   N/A
TWO RIVERS CG    1600   35                 1013.8      6
NORTHPORT PIER   1700   36     150/ 14/ 21 1013.5F
SISTER BAY LKSHO 1600          180/ 13/ 17   N/A
STURGEON BAY CG  1600   36     160/ 16     1014.8   3 1/2  2
CHAMBERS ISLAND  1700   36     140/  6/ 15 1013.2F
MENOMINEE LKSHOR 1700   36     140/ 16/ 19 1013.3F
$$



USA.gov is the U.S. government's official web portal to all federal, state and local government web resources and services.